Tracking 25707 objects as of 29-Jun-2022
HD Live streaming from Space Station
objects crossing your sky now

AMC-9 (GE-12)

Track AMC-9 (GE-12) now!
AMC-9 (GE-12) is classified as:


NORAD ID: 27820
Int'l Code: 2003-024A
Perigee: 36,067.2 km
Apogee: 36,221.2 km
Inclination: 4.3 °
Period: 1,454.0 minutes
Semi major axis: 42515 km
RCS: 43.0775 m2 (large)
Launch date: June 6, 2003
Source: SOCIETE EUROPEENNE DES SATELLITES (SES)
Launch site: TYURATAM MISSILE AND SPACE COMPLEX (TTMTR)

Television programmers, government agencies and enterprise networks; 24 Ku-band; CONUS and Mexico.
aabbcc
Your satellite tracking list
Your tracking list is empty




NASA's NSSDC Master Catalog

Two Line Element Set (TLE):
1 27820U 03024A   22180.57132839 -.00000119  00000-0  00000-0 0  9991
2 27820   4.2752  80.9645 0018117 325.2951 262.8047  0.99034545 69595
Source of the keplerian elements: AFSPC